This is the latest recevied weather packets stored in our database for station/object K5EAA-13. If no packets are shown the sender has not sent any weather packets the latest 10 day(s).
| Time | Temp. | Humidity | Pressure | Rain* | Wind** | Luminosity | Snow |
|---|---|---|---|---|---|---|---|
| 1787709164 | 31.67° C | 43% | 1012.8 hPa | 0 mm | - | 0 W/m² | - |
| 1787708860 | 31.67° C | 42% | 1012.7 hPa | 0 mm | - | 0 W/m² | - |
| 1787708559 | 32.22° C | 40% | 1012.8 hPa | 0 mm | - | 0 W/m² | - |
| 1787708254 | 32.22° C | 38% | 1012.6 hPa | 0 mm | - | 0 W/m² | - |
| 1787707950 | 32.78° C | 37% | 1012.4 hPa | 0 mm | - | 0 W/m² | - |
| 1787707645 | 32.78° C | 36% | 1012.7 hPa | 0 mm | - | 0 W/m² | - |
| 1787707341 | 32.78° C | 36% | 1012.5 hPa | 0 mm | - | 0 W/m² | - |
| 1787707036 | 32.78° C | 36% | 1012.5 hPa | 0 mm | - | 0 W/m² | - |
| 1787706735 | 32.78° C | 39% | 1012.6 hPa | 0 mm | - | 0 W/m² | - |
| 1787706432 | 32.78° C | 41% | 1012.5 hPa | 0 mm | - | 1 W/m² | - |
| 1787706127 | 33.33° C | 40% | 1012.8 hPa | 0 mm | - | 2 W/m² | - |
| 1787705822 | 33.33° C | 40% | 1012.6 hPa | 0 mm | - | 3 W/m² | - |
| 1787705516 | 33.89° C | 39% | 1012.5 hPa | 0 mm | - | 5 W/m² | - |
| 1787705214 | 33.89° C | 37% | 1012.6 hPa | 0 mm | - | 8 W/m² | - |
| 1787704913 | 33.89° C | 36% | 1012.7 hPa | 0 mm | - | 12 W/m² | - |
| 1787704609 | 34.44° C | 35% | 1012.9 hPa | 0 mm | - | 16 W/m² | - |
| 1787704305 | 34.44° C | 35% | 1012.9 hPa | 0 mm | - | 21 W/m² | - |
| 1787704004 | 34.44° C | 35% | 1013 hPa | 0 mm | - | 26 W/m² | - |
| 1787703698 | 35° C | 36% | 1012.9 hPa | 0 mm | - | 33 W/m² | - |
| 1787703394 | 35° C | 35% | 1012.7 hPa | 0 mm | - | 40 W/m² | - |
| 1787703090 | 35° C | 35% | 1012.9 hPa | 0 mm | - | 44 W/m² | - |
| 1787702785 | 35.56° C | 35% | 1013 hPa | 0 mm | - | 48 W/m² | - |
| 1787702481 | 35.56° C | 33% | 1013 hPa | 0 mm | - | 55 W/m² | - |
| 1787702180 | 36.11° C | 32% | 1013.2 hPa | 0 mm | - | 69 W/m² | - |
| 1787701876 | 36.11° C | 31% | 1013.1 hPa | 0 mm | - | 84 W/m² | - |
* Rain latest hour (hover to see other rain measurements)
** Current wind speed in m/s (hover to see current wind gust speed)